| time (UTC) | temp F | wind direction | speed MPH | gust MPH | rain 1hr in | rain 24hr in | rain mn in | humidity % | barometer mb |
| 20260905080440 | 83 | 60 | 1.0 | 2.0 | 0.00 | 0.00 | 0.00 | 84 | |
| 20260905075939 | 83 | 294 | 2.0 | 4.0 | 0.00 | 0.00 | 0.00 | 84 | |
| 20260905075434 | 83 | 328 | 2.0 | 3.0 | 0.00 | 0.00 | 0.00 | 84 | |
| 20260905074932 | 83 | 325 | 0.0 | 2.0 | 0.00 | 0.00 | 0.00 | 84 | |
| 20260905074428 | 83 | 347 | 0.0 | 4.0 | 0.00 | 0.00 | 0.00 | 84 | |
| 20260905073924 | 83 | 101 | 1.0 | 6.0 | 0.00 | 0.00 | 0.00 | 84 | |
| 20260905073419 | 83 | 335 | 1.0 | 1.0 | 0.00 | 0.00 | 0.00 | 84 | |
| 20260905072914 | 83 | 54 | 1.0 | 3.0 | 0.00 | 0.00 | 0.00 | 84 | |
| 20260905072409 | 83 | 321 | 1.0 | 3.0 | 0.00 | 0.00 | 0.00 | 84 | |
| 20260905071905 | 83 | 343 | 1.0 | 2.0 | 0.00 | 0.00 | 0.00 | 84 | |
| 20260905071401 | 83 | 355 | 2.0 | 2.0 | 0.00 | 0.00 | 0.00 | 84 | |
| 20260905070855 | 83 | 23 | 1.0 | 2.0 | 0.00 | 0.00 | 0.00 | 84 | |
| 20260905070352 | 83 | 38 | 1.0 | 2.0 | 0.00 | 0.00 | 0.00 | 84 | |
| 20260905065851 | 83 | 348 | 1.0 | 6.0 | 0.00 | 0.00 | 0.00 | 84 | |
| 20260905065349 | 83 | 337 | 0.0 | 3.0 | 0.00 | 0.00 | 0.00 | 84 | |
| 20260905064844 | 83 | 336 | 0.0 | 4.0 | 0.00 | 0.00 | 0.00 | 84 | |
| 20260905064340 | 83 | 12 | 0.0 | 4.0 | 0.00 | 0.00 | 0.00 | 84 | |
| 20260905063838 | 83 | 338 | 0.0 | 3.0 | 0.00 | 0.00 | 0.00 | 84 | |
| 20260905063334 | 83 | 331 | 0.0 | 3.0 | 0.00 | 0.00 | 0.00 | 84 | |
| 20260905062830 | 83 | 59 | 1.0 | 3.0 | 0.00 | 0.00 | 0.00 | 84 | |
| 20260905062324 | 83 | 5 | 1.0 | 3.0 | 0.00 | 0.00 | 0.00 | 84 | |
| 20260905061819 | 83 | 349 | 0.0 | 2.0 | 0.00 | 0.00 | 0.00 | 83 | |
| 20260905061314 | 83 | 15 | 1.0 | 7.0 | 0.00 | 0.00 | 0.00 | 83 | 1017.2 |
| 20260905060808 | 83 | 55 | 3.0 | 4.0 | 0.00 | 0.00 | 0.00 | 83 | 1017.2 |
| 20260905060305 | 83 | 343 | 0.0 | 4.0 | 0.00 | 0.00 | 0.00 | 83 | 1017.2 |
| 20260905055804 | 83 | 352 | 2.0 | 3.0 | 0.00 | 0.00 | 0.00 | 83 | 1017.2 |
| 20260905055259 | 83 | 57 | 1.0 | 4.0 | 0.00 | 0.00 | 0.00 | 83 | 1017.2 |
| 20260905054753 | 83 | 327 | 2.0 | 4.0 | 0.00 | 0.00 | 0.00 | 83 | 1017.2 |
| 20260905054250 | 83 | 338 | 0.0 | 1.0 | 0.00 | 0.00 | 0.00 | 83 | 1017.2 |
| 20260905053749 | 83 | 325 | 1.0 | 3.0 | 0.00 | 0.00 | 0.00 | 83 | 1017.2 |
| 20260905053244 | 83 | 32 | 4.0 | 4.0 | 0.00 | 0.00 | 0.00 | 83 | 1017.2 |
| 20260905052744 | 83 | 345 | 1.0 | 7.0 | 0.00 | 0.00 | 0.00 | 83 | 1017.2 |
| 20260905052239 | 83 | 344 | 1.0 | 4.0 | 0.00 | 0.00 | 0.00 | 83 | 1017.2 |
| 20260905051738 | 83 | 328 | 2.0 | 8.0 | 0.00 | 0.00 | 0.00 | 83 | 1017.2 |
| 20260905051236 | 83 | 9 | 2.0 | 4.0 | 0.00 | 0.00 | 0.00 | 83 | |
| 20260905050732 | 84 | 342 | 0.0 | 2.0 | 0.00 | 0.00 | 0.00 | 83 | |
| 20260905050228 | 83 | 40 | 1.0 | 4.0 | 0.00 | 0.00 | 0.00 | 83 | |
| 20260905045728 | 84 | 308 | 2.0 | 7.0 | 0.00 | 0.00 | 0.00 | 83 | |
| 20260905045223 | 84 | 46 | 2.0 | 6.0 | 0.00 | 0.00 | 0.00 | 83 | |
| 20260905044718 | 84 | 320 | 1.0 | 6.0 | 0.00 | 0.00 | 0.00 | 84 | |
| 20260905044213 | 84 | 306 | 2.0 | 4.0 | 0.00 | 0.00 | 0.00 | 83 | |
| 20260905043711 | 84 | 325 | 2.0 | 6.0 | 0.00 | 0.00 | 0.00 | 83 | |
| 20260905043207 | 84 | 0 | 2.0 | 4.0 | 0.00 | 0.00 | 0.00 | 83 | |
| 20260905042706 | 84 | 331 | 3.0 | 7.0 | 0.00 | 0.00 | 0.00 | 83 | |
| 20260905042201 | 84 | 324 | 0.0 | 4.0 | 0.00 | 0.00 | 0.00 | 83 | |
| 20260905041656 | 84 | 25 | 2.0 | 6.0 | 0.00 | 0.00 | 0.00 | 83 | |
| 20260905041151 | 84 | 342 | 1.0 | 2.0 | 0.00 | 0.00 | 0.00 | 83 | |
| 20260905040646 | 84 | 297 | 1.0 | 2.0 | 0.00 | 0.00 | 0.00 | 83 | |
| 20260905040145 | 84 | 308 | 1.0 | 3.0 | 0.00 | 0.00 | 0.00 | 83 | |
| 20260905035640 | 84 | 12 | 1.0 | 4.0 | 0.00 | 0.00 | 0.00 | 83 | |
| 20260905035137 | 84 | 7 | 2.0 | 6.0 | 0.00 | 0.00 | 0.00 | 82 | |
| 20260905034632 | 84 | 8 | 3.0 | 4.0 | 0.00 | 0.00 | 0.00 | 82 | |
| 20260905034132 | 84 | 33 | 1.0 | 1.0 | 0.00 | 0.00 | 0.00 | 82 | |
| 20260905033626 | 84 | 347 | 1.0 | 8.0 | 0.00 | 0.00 | 0.00 | 82 | |
| 20260905033122 | 84 | 13 | 1.0 | 3.0 | 0.00 | 0.00 | 0.00 | 82 | |
| 20260905032621 | 84 | 344 | 2.0 | 3.0 | 0.00 | 0.00 | 0.00 | 82 | |
| 20260905032115 | 84 | 133 | 2.0 | 4.0 | 0.00 | 0.00 | 0.00 | 82 | |
| 20260905031612 | 84 | 349 | 1.0 | 8.0 | 0.00 | 0.00 | 0.00 | 82 | |
| 20260905031111 | 84 | 260 | 2.0 | 6.0 | 0.00 | 0.00 | 0.00 | 82 | |
| 20260905030606 | 84 | 141 | 1.0 | 3.0 | 0.00 | 0.00 | 0.00 | 82 | |
| 20260905030101 | 84 | 106 | 2.0 | 4.0 | 0.00 | 0.00 | 0.00 | 82 | |
| 20260905025556 | 84 | 1 | 2.0 | 6.0 | 0.00 | 0.00 | 0.00 | 82 | |
| 20260905025052 | 84 | 328 | 1.0 | 4.0 | 0.00 | 0.00 | 0.00 | 82 | |
| 20260905024548 | 84 | 356 | 2.0 | 4.0 | 0.00 | 0.00 | 0.00 | 82 | |
| 20260905024044 | 84 | 33 | 0.0 | 3.0 | 0.00 | 0.00 | 0.00 | 82 | |
| 20260905023539 | 84 | 343 | 2.0 | 4.0 | 0.00 | 0.00 | 0.00 | 82 | |
| 20260905023038 | 84 | 168 | 1.0 | 3.0 | 0.00 | 0.00 | 0.00 | 81 | |
| 20260905022538 | 84 | 323 | 0.0 | 6.0 | 0.00 | 0.00 | 0.00 | 82 | |
| 20260905022033 | 84 | 72 | 2.0 | 6.0 | 0.00 | 0.00 | 0.00 | 81 | |
| 20260905021533 | 84 | 345 | 3.0 | 8.0 | 0.00 | 0.00 | 0.00 | 81 | |
| 20260905021028 | 84 | 249 | 3.0 | 6.0 | 0.00 | 0.00 | 0.00 | 81 | |
| 20260905020522 | 84 | 316 | 2.0 | 4.0 | 0.00 | 0.00 | 0.00 | 81 | |
| 20260905020018 | 84 | 258 | 2.0 | 4.0 | 0.00 | 0.00 | 0.00 | 81 | |
| 20260905015516 | 84 | 149 | 2.0 | 8.0 | 0.00 | 0.00 | 0.00 | 81 | |
| 20260905015016 | 84 | 356 | 2.0 | 4.0 | 0.00 | 0.00 | 0.00 | 81 | |
| 20260905014510 | 84 | 36 | 2.0 | 4.0 | 0.00 | 0.00 | 0.00 | 81 | |
| 20260905014006 | 84 | 312 | 1.0 | 2.0 | 0.00 | 0.00 | 0.00 | 81 | |
| 20260905013502 | 84 | 71 | 2.0 | 4.0 | 0.00 | 0.00 | 0.00 | 81 | |
| 20260905012957 | 84 | 9 | 0.0 | 3.0 | 0.00 | 0.00 | 0.00 | 81 | |
| 20260905012452 | 84 | 6 | 2.0 | 3.0 | 0.00 | 0.00 | 0.00 | 80 | |
| 20260905011949 | 84 | 338 | 1.0 | 6.0 | 0.00 | 0.00 | 0.00 | 80 | |
| 20260905011444 | 84 | 17 | 1.0 | 2.0 | 0.00 | 0.00 | 0.00 | 80 | |
| 20260905010940 | 84 | 355 | 0.0 | 3.0 | 0.00 | 0.00 | 0.00 | 80 | |
| 20260905010435 | 84 | 23 | 2.0 | 4.0 | 0.00 | 0.00 | 0.00 | 80 | |
| 20260905005930 | 84 | 342 | 0.0 | 9.0 | 0.00 | 0.00 | 0.00 | 81 | |
| 20260905005427 | 84 | 39 | 3.0 | 7.0 | 0.00 | 0.00 | 0.00 | 80 | |
| 20260905004927 | 84 | 331 | 4.0 | 6.0 | 0.00 | 0.00 | 0.00 | 80 | |
| 20260905004421 | 84 | 113 | 1.0 | 3.0 | 0.00 | 0.00 | 0.00 | 80 | |
| 20260905003917 | 84 | 314 | 3.0 | 6.0 | 0.00 | 0.00 | 0.00 | 81 | |
| 20260905003413 | 84 | 350 | 2.0 | 6.0 | 0.00 | 0.00 | 0.00 | 81 | |
| 20260905002908 | 84 | 352 | 2.0 | 4.0 | 0.00 | 0.00 | 0.00 | 81 | |
| 20260905002407 | 84 | 338 | 0.0 | 2.0 | 0.00 | 0.00 | 0.00 | 80 | |
| 20260905001857 | 84 | 0 | 1.0 | 4.0 | 0.00 | 0.00 | 0.00 | 80 | |
| 20260905001357 | 84 | 11 | 2.0 | 7.0 | 0.00 | 0.00 | 0.00 | 80 | |
| 20260905000852 | 84 | 225 | 1.0 | 6.0 | 0.00 | 0.00 | 0.00 | 80 | |
| 20260905000348 | 85 | 29 | 2.0 | 4.0 | 0.00 | 0.00 | 0.00 | 80 | |
| 20260904235843 | 84 | 48 | 0.0 | 3.0 | 0.00 | 0.00 | 0.00 | 80 | |
| 20260904235338 | 84 | 66 | 3.0 | 6.0 | 0.00 | 0.00 | 0.00 | 80 | |
| 20260904234832 | 85 | 87 | 3.0 | 8.0 | 0.00 | 0.00 | 0.00 | 80 | |
| 20260904234327 | 85 | 336 | 2.0 | 3.0 | 0.00 | 0.00 | 0.00 | 80 | |
| 20260904233823 | 85 | 331 | 2.0 | 2.0 | 0.00 | 0.00 | 0.00 | 80 | |
| 20260904233318 | 85 | 65 | 3.0 | 7.0 | 0.00 | 0.00 | 0.00 | 80 | |
| 20260904232814 | 85 | 322 | 1.0 | 6.0 | 0.00 | 0.00 | 0.00 | 80 | |
| 20260904232310 | 85 | 26 | 1.0 | 6.0 | 0.00 | 0.00 | 0.00 | 80 | |
| 20260904231806 | 85 | 7 | 1.0 | 4.0 | 0.00 | 0.00 | 0.00 | 80 | |
| 20260904231301 | 85 | 105 | 3.0 | 4.0 | 0.00 | 0.00 | 0.00 | 80 | |
| 20260904230756 | 85 | 11 | 4.0 | 6.0 | 0.00 | 0.00 | 0.00 | 80 | |
| 20260904230249 | 85 | 351 | 2.0 | 6.0 | 0.00 | 0.00 | 0.00 | 80 | |
| 20260904225744 | 85 | 73 | 6.0 | 9.0 | 0.00 | 0.00 | 0.00 | 80 | |
| 20260904225238 | 85 | 354 | 3.0 | 8.0 | 0.00 | 0.00 | 0.00 | 80 | |
| 20260904224737 | 85 | 64 | 5.0 | 7.0 | 0.00 | 0.00 | 0.00 | 80 | |
| 20260904224233 | 85 | 23 | 4.0 | 6.0 | 0.00 | 0.00 | 0.00 | 79 | |
| 20260904223732 | 85 | 359 | 5.0 | 8.0 | 0.00 | 0.00 | 0.00 | 79 | |
| 20260904223227 | 86 | 113 | 3.0 | 6.0 | 0.00 | 0.00 | 0.00 | 78 | |
| 20260904222723 | 86 | 92 | 4.0 | 7.0 | 0.00 | 0.00 | 0.00 | 78 | |
| 20260904222218 | 86 | 359 | 3.0 | 8.0 | 0.00 | 0.00 | 0.00 | 77 | |
| 20260904221718 | 86 | 1 | 0.0 | 7.0 | 0.00 | 0.00 | 0.00 | 77 | |
| 20260904221213 | 86 | 36 | 2.0 | 8.0 | 0.00 | 0.00 | 0.00 | 76 | |
| 20260904220713 | 87 | 92 | 4.0 | 8.0 | 0.00 | 0.00 | 0.00 | 75 | |
| 20260904220208 | 87 | 43 | 1.0 | 2.0 | 0.00 | 0.00 | 0.00 | 73 | |
| 20260904215708 | 87 | 25 | 4.0 | 6.0 | 0.00 | 0.00 | 0.00 | 73 | |
| 20260904215204 | 87 | 341 | 3.0 | 7.0 | 0.00 | 0.00 | 0.00 | 72 | |
| 20260904214659 | 87 | 8 | 2.0 | 8.0 | 0.00 | 0.00 | 0.00 | 72 | |
| 20260904214154 | 87 | 311 | 2.0 | 4.0 | 0.00 | 0.00 | 0.00 | 72 | |
| 20260904213652 | 88 | 349 | 2.0 | 7.0 | 0.00 | 0.00 | 0.00 | 71 | |
| 20260904213149 | 88 | 339 | 1.0 | 10.0 | 0.00 | 0.00 | 0.00 | 71 | |
| 20260904212643 | 89 | 346 | 1.0 | 6.0 | 0.00 | 0.00 | 0.00 | 69 | |
| 20260904212138 | 89 | 37 | 4.0 | 10.0 | 0.00 | 0.00 | 0.00 | 69 | |
| 20260904211632 | 89 | 15 | 2.0 | 6.0 | 0.00 | 0.00 | 0.00 | 69 | |
| 20260904211127 | 89 | 50 | 5.0 | 8.0 | 0.00 | 0.00 | 0.00 | 68 | |
| 20260904210621 | 89 | 24 | 4.0 | 11.0 | 0.00 | 0.00 | 0.00 | 68 | |
| 20260904210117 | 90 | 93 | 2.0 | 4.0 | 0.00 | 0.00 | 0.00 | 67 | |
| 20260904205612 | 90 | 53 | 1.0 | 6.0 | 0.00 | 0.00 | 0.00 | 66 | |
| 20260904205109 | 90 | 347 | 2.0 | 6.0 | 0.00 | 0.00 | 0.00 | 66 | |
| 20260904204604 | 89 | 86 | 1.0 | 7.0 | 0.00 | 0.00 | 0.00 | 65 | |
| 20260904204100 | 89 | 355 | 7.0 | 9.0 | 0.00 | 0.00 | 0.00 | 65 | |
| 20260904203556 | 90 | 73 | 4.0 | 7.0 | 0.00 | 0.00 | 0.00 | 66 | |
| 20260904203052 | 91 | 330 | 2.0 | 4.0 | 0.00 | 0.00 | 0.00 | 64 | |
| 20260904202548 | 89 | 67 | 2.0 | 8.0 | 0.00 | 0.00 | 0.00 | 65 | |
| 20260904202044 | 89 | 88 | 4.0 | 7.0 | 0.00 | 0.00 | 0.00 | 66 | |
| 20260904201539 | 89 | 357 | 2.0 | 7.0 | 0.00 | 0.00 | 0.00 | 64 | |
| 20260904201034 | 90 | 18 | 3.0 | 16.0 | 0.00 | 0.00 | 0.00 | 65 | |
| 20260904200533 | 91 | 49 | 6.0 | 10.0 | 0.00 | 0.00 | 0.00 | 65 | |
| 20260904200028 | 91 | 305 | 1.0 | 4.0 | 0.00 | 0.00 | 0.00 | 65 | |
| 20260904195527 | 92 | 358 | 1.0 | 8.0 | 0.00 | 0.00 | 0.00 | 65 | |
| 20260904195026 | 91 | 238 | 1.0 | 4.0 | 0.00 | 0.00 | 0.00 | 64 | |
| 20260904194521 | 92 | 80 | 2.0 | 7.0 | 0.00 | 0.00 | 0.00 | 64 | |
| 20260904194016 | 92 | 74 | 2.0 | 7.0 | 0.00 | 0.00 | 0.00 | 63 | |
| 20260904193516 | 92 | 184 | 2.0 | 6.0 | 0.00 | 0.00 | 0.00 | 64 | |
| 20260904193012 | 91 | 70 | 2.0 | 7.0 | 0.00 | 0.00 | 0.00 | 63 | |
| 20260904192511 | 91 | 104 | 5.0 | 7.0 | 0.00 | 0.00 | 0.00 | 63 | |
| 20260904192008 | 92 | 51 | 1.0 | 9.0 | 0.00 | 0.00 | 0.00 | 65 | |
| 20260904191504 | 92 | 89 | 5.0 | 8.0 | 0.00 | 0.00 | 0.00 | 64 | |
| 20260904191000 | 91 | 358 | 2.0 | 6.0 | 0.00 | 0.00 | 0.00 | 65 | |
| 20260904190455 | 92 | 325 | 4.0 | 9.0 | 0.00 | 0.00 | 0.00 | 65 | |
| 20260904185951 | 91 | 336 | 3.0 | 8.0 | 0.00 | 0.00 | 0.00 | 65 | |
| 20260904185447 | 91 | 42 | 2.0 | 6.0 | 0.00 | 0.00 | 0.00 | 65 | |
| 20260904184942 | 92 | 28 | 2.0 | 8.0 | 0.00 | 0.00 | 0.00 | 65 | |
| 20260904184436 | 91 | 25 | 4.0 | 7.0 | 0.00 | 0.00 | 0.00 | 66 | |
| 20260904183932 | 91 | 0 | 2.0 | 7.0 | 0.00 | 0.00 | 0.00 | 66 | |
| 20260904183427 | 92 | 352 | 3.0 | 6.0 | 0.00 | 0.00 | 0.00 | 65 | |
| 20260904182922 | 92 | 249 | 1.0 | 10.0 | 0.00 | 0.00 | 0.00 | 65 | |
| 20260904182418 | 91 | 336 | 2.0 | 4.0 | 0.00 | 0.00 | 0.00 | 65 | |
| 20260904181913 | 93 | 276 | 4.0 | 8.0 | 0.00 | 0.00 | 0.00 | 62 | |
| 20260904181408 | 93 | 30 | 2.0 | 6.0 | 0.00 | 0.00 | 0.00 | 62 | |
| 20260904180902 | 92 | 310 | 2.0 | 4.0 | 0.00 | 0.00 | 0.00 | 63 | |
| 20260904180352 | 92 | 2 | 3.0 | 4.0 | 0.00 | 0.00 | 0.00 | 63 | |
| 20260904175851 | 92 | 347 | 1.0 | 6.0 | 0.00 | 0.00 | 0.00 | 64 | |
| 20260904175350 | 92 | 294 | 1.0 | 6.0 | 0.00 | 0.00 | 0.00 | 64 | |
| 20260904174844 | 92 | 87 | 1.0 | 7.0 | 0.00 | 0.00 | 0.00 | 64 | |
| 20260904174341 | 92 | 57 | 2.0 | 8.0 | 0.00 | 0.00 | 0.00 | 63 | |
| 20260904173837 | 92 | 103 | 3.0 | 6.0 | 0.00 | 0.00 | 0.00 | 62 | |
| 20260904173331 | 92 | 30 | 2.0 | 7.0 | 0.00 | 0.00 | 0.00 | 63 | |
| 20260904172827 | 92 | 11 | 3.0 | 4.0 | 0.00 | 0.00 | 0.00 | 62 | |
| 20260904172326 | 92 | 259 | 3.0 | 9.0 | 0.00 | 0.00 | 0.00 | 62 | |
| 20260904171821 | 92 | 335 | 0.0 | 4.0 | 0.00 | 0.00 | 0.00 | 65 | |
| 20260904171317 | 93 | 258 | 4.0 | 6.0 | 0.00 | 0.00 | 0.00 | 62 | |
| 20260904170813 | 92 | 20 | 1.0 | 10.0 | 0.00 | 0.00 | 0.00 | 62 | |
| 20260904170308 | 92 | 329 | 5.0 | 8.0 | 0.00 | 0.00 | 0.00 | 62 | |
| 20260904165808 | 92 | 226 | 5.0 | 8.0 | 0.00 | 0.00 | 0.00 | 61 | |
| 20260904165305 | 92 | 115 | 4.0 | 6.0 | 0.00 | 0.00 | 0.00 | 61 | |
| 20260904164802 | 92 | 319 | 2.0 | 4.0 | 0.00 | 0.00 | 0.00 | 62 | |
| 20260904164257 | 91 | 264 | 1.0 | 6.0 | 0.00 | 0.00 | 0.00 | 63 | |
| 20260904163753 | 92 | 85 | 1.0 | 6.0 | 0.00 | 0.00 | 0.00 | 66 | |
| 20260904163248 | 90 | 23 | 2.0 | 4.0 | 0.00 | 0.00 | 0.00 | 65 | |
| 20260904162747 | 89 | 125 | 2.0 | 4.0 | 0.00 | 0.00 | 0.00 | 71 | |
| 20260904162243 | 90 | 338 | 2.0 | 8.0 | 0.00 | 0.00 | 0.00 | 69 | |
| 20260904161738 | 89 | 295 | 1.0 | 3.0 | 0.00 | 0.00 | 0.00 | 69 | |
| 20260904161233 | 89 | 76 | 2.0 | 8.0 | 0.00 | 0.00 | 0.00 | 69 | |
| 20260904160728 | 90 | 179 | 4.0 | 6.0 | 0.00 | 0.00 | 0.00 | 68 | |
| 20260904160224 | 89 | 271 | 4.0 | 8.0 | 0.00 | 0.00 | 0.00 | 69 | |
| 20260904155724 | 90 | 344 | 4.0 | 8.0 | 0.00 | 0.00 | 0.00 | 69 | |
| 20260904155223 | 90 | 136 | 3.0 | 8.0 | 0.00 | 0.00 | 0.00 | 69 | |
| 20260904154721 | 89 | 226 | 2.0 | 7.0 | 0.00 | 0.00 | 0.00 | 69 | |
| 20260904154216 | 89 | 142 | 3.0 | 7.0 | 0.00 | 0.00 | 0.00 | 70 | |
| 20260904153711 | 90 | 29 | 4.0 | 6.0 | 0.00 | 0.00 | 0.00 | 69 | |
| 20260904153207 | 89 | 200 | 3.0 | 6.0 | 0.00 | 0.00 | 0.00 | 69 | |
| 20260904152703 | 89 | 312 | 5.0 | 7.0 | 0.00 | 0.00 | 0.00 | 70 | |
| 20260904152158 | 89 | 173 | 4.0 | 9.0 | 0.00 | 0.00 | 0.00 | 70 | |
| 20260904151653 | 89 | 122 | 2.0 | 7.0 | 0.00 | 0.00 | 0.00 | 71 | |
| 20260904151152 | 89 | 215 | 3.0 | 7.0 | 0.00 | 0.00 | 0.00 | 70 | |
| 20260904150648 | 89 | 199 | 3.0 | 7.0 | 0.00 | 0.00 | 0.00 | 71 | |
| 20260904150149 | 89 | 118 | 4.0 | 6.0 | 0.00 | 0.00 | 0.00 | 71 | |
| 20260904145647 | 89 | 250 | 2.0 | 8.0 | 0.00 | 0.00 | 0.00 | 70 | |
| 20260904145142 | 91 | 155 | 4.0 | 7.0 | 0.00 | 0.00 | 0.00 | 67 | |
| 20260904144638 | 91 | 67 | 4.0 | 7.0 | 0.00 | 0.00 | 0.00 | 63 | |
| 20260904144133 | 89 | 354 | 3.0 | 4.0 | 0.00 | 0.00 | 0.00 | 66 | |
| 20260904143629 | 89 | 271 | 2.0 | 9.0 | 0.00 | 0.00 | 0.00 | 67 | |
| 20260904143125 | 89 | 125 | 3.0 | 6.0 | 0.00 | 0.00 | 0.00 | 67 | |
| 20260904142622 | 89 | 74 | 2.0 | 6.0 | 0.00 | 0.00 | 0.00 | 68 | |
| 20260904142117 | 89 | 108 | 3.0 | 7.0 | 0.00 | 0.00 | 0.00 | 68 | |
| 20260904141612 | 89 | 57 | 4.0 | 6.0 | 0.00 | 0.00 | 0.00 | 68 | |
| 20260904141108 | 89 | 145 | 4.0 | 9.0 | 0.00 | 0.00 | 0.00 | 69 | |
| 20260904140604 | 89 | 34 | 2.0 | 6.0 | 0.00 | 0.00 | 0.00 | 68 | |
| 20260904140057 | 88 | 160 | 2.0 | 6.0 | 0.00 | 0.00 | 0.00 | 69 | |
| 20260904135556 | 88 | 46 | 2.0 | 4.0 | 0.00 | 0.00 | 0.00 | 71 | |
| 20260904135053 | 88 | 110 | 4.0 | 6.0 | 0.00 | 0.00 | 0.00 | 70 | |
| 20260904134549 | 89 | 338 | 2.0 | 6.0 | 0.00 | 0.00 | 0.00 | 69 | |
| 20260904134042 | 88 | 290 | 2.0 | 4.0 | 0.00 | 0.00 | 0.00 | 70 | |
| 20260904133537 | 89 | 263 | 4.0 | 8.0 | 0.00 | 0.00 | 0.00 | 68 | |
| 20260904133033 | 89 | 104 | 2.0 | 6.0 | 0.00 | 0.00 | 0.00 | 69 | |
| 20260904132527 | 88 | 28 | 3.0 | 4.0 | 0.00 | 0.00 | 0.00 | 70 | |
| 20260904132027 | 88 | 327 | 3.0 | 7.0 | 0.00 | 0.00 | 0.00 | 70 | |
| 20260904131527 | 88 | 150 | 3.0 | 6.0 | 0.00 | 0.00 | 0.00 | 69 | |
| 20260904131023 | 88 | 53 | 3.0 | 7.0 | 0.00 | 0.00 | 0.00 | 68 | |
| 20260904130523 | 88 | 34 | 5.0 | 8.0 | 0.00 | 0.00 | 0.00 | 70 | |
| 20260904130023 | 87 | 58 | 4.0 | 6.0 | 0.00 | 0.00 | 0.00 | 70 | |
| 20260904125519 | 87 | 55 | 1.0 | 3.0 | 0.00 | 0.00 | 0.00 | 72 | |
| 20260904125014 | 87 | 355 | 2.0 | 4.0 | 0.00 | 0.00 | 0.00 | 73 | |
| 20260904124510 | 87 | 45 | 2.0 | 2.0 | 0.00 | 0.00 | 0.00 | 72 | |
| 20260904124006 | 87 | 9 | 2.0 | 7.0 | 0.00 | 0.00 | 0.00 | 72 | |
| 20260904123505 | 86 | 248 | 2.0 | 3.0 | 0.00 | 0.00 | 0.00 | 73 | |
| 20260904123001 | 87 | 356 | 1.0 | 6.0 | 0.00 | 0.00 | 0.00 | 72 | |
| 20260904122501 | 87 | 311 | 0.0 | 6.0 | 0.00 | 0.00 | 0.00 | 72 | |
| 20260904121955 | 87 | 343 | 1.0 | 4.0 | 0.00 | 0.00 | 0.00 | 72 | |
| 20260904121451 | 86 | 5 | 4.0 | 8.0 | 0.00 | 0.00 | 0.00 | 73 | |
| 20260904120948 | 86 | 17 | 1.0 | 6.0 | 0.00 | 0.00 | 0.00 | 73 | |
| 20260904120443 | 86 | 6 | 1.0 | 7.0 | 0.00 | 0.00 | 0.00 | 74 | |
| 20260904115938 | 86 | 3 | 3.0 | 4.0 | 0.00 | 0.00 | 0.00 | 73 | |
| 20260904115434 | 86 | 298 | 2.0 | 6.0 | 0.00 | 0.00 | 0.00 | 73 | |
| 20260904114934 | 86 | 355 | 1.0 | 7.0 | 0.00 | 0.00 | 0.00 | 73 | |
| 20260904114433 | 86 | 352 | 2.0 | 8.0 | 0.00 | 0.00 | 0.00 | 73 | |
| 20260904113930 | 85 | 339 | 1.0 | 2.0 | 0.00 | 0.00 | 0.00 | 74 | |
| 20260904113428 | 85 | 345 | 2.0 | 3.0 | 0.00 | 0.00 | 0.00 | 74 | |
| 20260904112928 | 85 | 357 | 0.0 | 2.0 | 0.00 | 0.00 | 0.00 | 76 | |
| 20260904112424 | 84 | 357 | 1.0 | 3.0 | 0.00 | 0.00 | 0.00 | 76 | |
| 20260904111919 | 84 | 311 | 2.0 | 3.0 | 0.00 | 0.00 | 0.00 | 77 | |
| 20260904111414 | 83 | 292 | 2.0 | 2.0 | 0.00 | 0.00 | 0.00 | 78 | |
| 20260904110911 | 83 | 353 | 0.0 | 2.0 | 0.00 | 0.00 | 0.00 | 79 | |
| 20260904110409 | 82 | 359 | 0.0 | 6.0 | 0.00 | 0.00 | 0.00 | 79 | |
| 20260904105904 | 82 | 358 | 1.0 | 2.0 | 0.00 | 0.00 | 0.00 | 80 | |
| 20260904105359 | 82 | 342 | 1.0 | 2.0 | 0.00 | 0.00 | 0.00 | 80 | |
| 20260904104854 | 82 | 29 | 1.0 | 2.0 | 0.00 | 0.00 | 0.00 | 80 | |
| 20260904104349 | 82 | 346 | 1.0 | 2.0 | 0.00 | 0.00 | 0.00 | 80 | |
| 20260904103847 | 82 | 70 | 0.0 | 2.0 | 0.00 | 0.00 | 0.00 | 81 | |
| 20260904103346 | 82 | 350 | 0.0 | 3.0 | 0.00 | 0.00 | 0.00 | 81 | |
| 20260904102842 | 82 | 348 | 1.0 | 1.0 | 0.00 | 0.00 | 0.00 | 80 | |
| 20260904102337 | 82 | 347 | 1.0 | 3.0 | 0.00 | 0.00 | 0.00 | 80 | |
| 20260904101833 | 82 | 342 | 0.0 | 2.0 | 0.00 | 0.00 | 0.00 | 80 | |
| 20260904101329 | 82 | 4 | 1.0 | 2.0 | 0.00 | 0.00 | 0.00 | 80 | |
| 20260904100825 | 82 | 2 | 0.0 | 2.0 | 0.00 | 0.00 | 0.00 | 80 | |
| 20260904100321 | 82 | 14 | 2.0 | 3.0 | 0.00 | 0.00 | 0.00 | 80 | |
| 20260904095815 | 82 | 37 | 0.0 | 2.0 | 0.00 | 0.00 | 0.00 | 81 | |
| 20260904095310 | 82 | 334 | 2.0 | 3.0 | 0.00 | 0.00 | 0.00 | 81 | |
| 20260904094805 | 82 | 175 | 2.0 | 3.0 | 0.00 | 0.00 | 0.00 | 80 | |
| 20260904094300 | 82 | 185 | 2.0 | 3.0 | 0.00 | 0.00 | 0.00 | 80 | |
| 20260904093757 | 82 | 15 | 3.0 | 4.0 | 0.00 | 0.00 | 0.00 | 80 | |
| 20260904093256 | 82 | 358 | 3.0 | 3.0 | 0.00 | 0.00 | 0.00 | 80 | |
| 20260904092752 | 82 | 329 | 1.0 | 2.0 | 0.00 | 0.00 | 0.00 | 80 | |
| 20260904092249 | 82 | 266 | 0.0 | 1.0 | 0.00 | 0.00 | 0.00 | 80 | |
| 20260904091744 | 82 | 15 | 1.0 | 2.0 | 0.00 | 0.00 | 0.00 | 80 | |
| 20260904091238 | 82 | 343 | 1.0 | 4.0 | 0.00 | 0.00 | 0.00 | 80 | |
| 20260904090734 | 82 | 356 | 1.0 | 1.0 | 0.00 | 0.00 | 0.00 | 80 | |
| 20260904090231 | 82 | 52 | 2.0 | 3.0 | 0.00 | 0.00 | 0.00 | 80 | |
| 20260904085730 | 82 | 313 | 1.0 | 1.0 | 0.00 | 0.00 | 0.00 | 80 | |
| 20260904085225 | 82 | 346 | 0.0 | 1.0 | 0.00 | 0.00 | 0.00 | 80 | |
| 20260904084720 | 82 | 288 | 1.0 | 2.0 | 0.00 | 0.00 | 0.00 | 79 | |
| 20260904084217 | 82 | 34 | 0.0 | 2.0 | 0.00 | 0.00 | 0.00 | 79 | |
| 20260904083713 | 82 | 288 | 1.0 | 3.0 | 0.00 | 0.00 | 0.00 | 80 | |
| 20260904083209 | 82 | 23 | 3.0 | 3.0 | 0.00 | 0.00 | 0.00 | 80 | |
| 20260904082708 | 82 | 16 | 1.0 | 3.0 | 0.00 | 0.00 | 0.00 | 81 | |
| 20260904082204 | 82 | 48 | 1.0 | 4.0 | 0.00 | 0.00 | 0.00 | 81 | |
| 20260904081659 | 82 | 329 | 0.0 | 3.0 | 0.00 | 0.00 | 0.00 | 81 | |
| 20260904081154 | 82 | 331 | 0.0 | 4.0 | 0.00 | 0.00 | 0.00 | 81 | |
| 20260904080650 | 82 | 347 | 0.0 | 1.0 | 0.00 | 0.00 | 0.00 | 81 |